This is the latest recevied weather packets stored in our database for station/object DO1SN-13. If no packets are shown the sender has not sent any weather packets the latest 10 day(s).
| Time | Temp. | Humidity | Pressure | Rain* | Wind** | Luminosity | Snow |
|---|---|---|---|---|---|---|---|
| 1787694056 | 18.33° C | - | 1018.3 hPa | 0 mm | - | - | - |
| 1787693692 | 18.89° C | - | 1018.3 hPa | 0 mm | - | - | - |
| 1787693328 | 19.44° C | - | 1018.2 hPa | 0 mm | - | - | - |
| 1787692963 | 17.78° C | - | 1018.2 hPa | 0 mm | - | - | - |
| 1787692599 | 18.33° C | - | 1018.2 hPa | 0 mm | - | - | - |
| 1787692235 | 18.33° C | - | 1018.3 hPa | 0 mm | - | - | - |
| 1787691871 | 18.33° C | - | 1018.3 hPa | 0 mm | - | - | - |
| 1787691507 | 18.89° C | - | 1018.4 hPa | 0 mm | - | - | - |
| 1787691143 | 18.33° C | - | 1018.4 hPa | 0 mm | - | - | - |
| 1787690779 | 18.89° C | - | 1018.2 hPa | 0 mm | - | - | - |
| 1787690414 | 18.33° C | - | 1018.3 hPa | 0 mm | - | - | - |
| 1787690050 | 19.44° C | - | 1018.4 hPa | 0 mm | - | - | - |
| 1787689686 | 19.44° C | - | 1018.4 hPa | 0 mm | - | - | - |
| 1787689322 | 20.56° C | - | 1018.5 hPa | 0 mm | - | - | - |
| 1787688958 | 20.56° C | - | 1018.5 hPa | 0 mm | - | - | - |
| 1787688594 | 20° C | - | 1018.4 hPa | 0 mm | - | - | - |
| 1787688229 | 19.44° C | - | 1018.5 hPa | 0 mm | - | - | - |
| 1787687865 | 20° C | - | 1018.5 hPa | 0 mm | - | - | - |
| 1787687501 | 21.11° C | - | 1018.4 hPa | 0 mm | - | - | - |
| 1787687137 | 22.22° C | - | 1018.4 hPa | 0 mm | - | - | - |
| 1787686772 | 21.67° C | - | 1018.3 hPa | 0 mm | - | - | - |
| 1787686408 | 22.22° C | - | 1018.3 hPa | 0 mm | - | - | - |
| 1787686044 | 21.11° C | - | 1018.3 hPa | 0 mm | - | - | - |
| 1787685679 | 20° C | - | 1018.2 hPa | 0 mm | - | - | - |
| 1787685314 | 21.11° C | - | 1018.3 hPa | 0 mm | - | - | - |
* Rain latest hour (hover to see other rain measurements)
** Current wind speed in m/s (hover to see current wind gust speed)